Online Auction of Sound, Stage, and Lighting Equipment for Sale in Orange County, CA

Lot #0102: Show Solutions 10' x 1' Aluminum Stage Truss

Bidding is closed.
High Bid:$370.00
NA
Bidding Ended: Thu, Jan 10  10:08:54 am PT
High Bidder: pixelwerks
Bid Increment: $10.00
Starting Bid: $5.00
Item Location: Fullerton, CA 92833
Item has been viewed 999 times.

Show Solutions 10' x 1' Aluminum Stage Truss

NOTE: Photos are representative of item. 

Bid Date Bid Amount Bidder
Jan 10, 2019 - 10:06:54 AM $370.00 ipixelwerks
Jan 10, 2019 - 10:06:54 AM $360.00 iJlortz2k8
Jan 10, 2019 - 10:05:05 AM $350.00 ipixelwerks
Jan 10, 2019 - 10:05:05 AM $340.00 iJlortz2k8
Jan 10, 2019 - 10:04:45 AM $330.00 ipixelwerks
Jan 10, 2019 - 10:04:45 AM $320.00 iJlortz2k8
Jan 10, 2019 - 10:03:55 AM $310.00 ipixelwerks
Jan 10, 2019 - 10:03:55 AM $300.00 iJlortz2k8
Jan 10, 2019 - 10:02:34 AM $261.12 iJlortz2k8
Jan 10, 2019 - 10:02:34 AM $251.12 ilakinetics
Jan 10, 2019 - 10:00:54 AM $210.00 ilakinetics
Jan 10, 2019 - 10:00:54 AM $200.00 iTonyAlva
Jan 10, 2019 - 9:59:52 AM $195.00 iTonyAlva
Jan 10, 2019 - 9:32:23 AM $185.00 ilakinetics
Jan 10, 2019 - 8:25:36 AM $175.00 isosdjing
Jan 10, 2019 - 8:25:37 AM $175.00 iSdamme84
Jan 9, 2019 - 10:36:59 PM $165.00 isosdjing
Jan 9, 2019 - 10:36:59 PM $155.00 islsprod
Jan 9, 2019 - 6:43:45 PM $130.00 islsprod
Jan 9, 2019 - 10:39:26 AM $120.00 ihttechtim
Jan 9, 2019 - 10:39:26 AM $116.00 idjcraze88
Jan 9, 2019 - 8:32:49 AM $106.00 ihttechtim
Jan 9, 2019 - 8:29:36 AM $101.00 iDano1954
Jan 9, 2019 - 8:29:36 AM $100.00 ihttechtim
Jan 9, 2019 - 8:29:29 AM $85.00 iDano1954
Jan 9, 2019 - 8:29:29 AM $80.00 ihttechtim
Jan 9, 2019 - 8:29:01 AM $75.00 iDano1954
Jan 9, 2019 - 8:29:01 AM $70.00 ihttechtim
Jan 9, 2019 - 3:17:50 AM $65.00 iDano1954
Jan 9, 2019 - 3:17:50 AM $60.00 ivietbaytivi
Jan 9, 2019 - 12:12:38 AM $56.00 ivietbaytivi
Jan 9, 2019 - 12:12:25 AM $51.00 iDano1954
Jan 9, 2019 - 12:12:25 AM $50.00 ivietbaytivi
Jan 8, 2019 - 6:09:10 PM $42.00 iDano1954
Jan 8, 2019 - 6:09:10 PM $37.00 iThanh802002
Jan 8, 2019 - 1:26:26 PM $30.00 iDano1954
Jan 8, 2019 - 1:26:26 PM $25.00 iHerdel
Jan 8, 2019 - 1:20:44 PM $20.00 iDano1954
Jan 8, 2019 - 12:35:44 PM $15.00 iKurt Musser
Jan 8, 2019 - 11:55:07 AM $10.00 iatune2u
Jan 8, 2019 - 11:55:08 AM $10.00 isabzonsabz
Jan 8, 2019 - 10:08:11 AM $5.00 iatune2u
Click on any picture to see a larger image.